Lapse_Rate
-2.5 -3.1 -2.5 -1.9 -3.4 -3.6 -3.0 -0.9 3.0 5.0 4.9 4.7 4.6 5.1 6.1 6.4 6.2 6.3 6.8 6.2 4.1 4.8 5.2 6.1 6.2 7.3 6.7
-1.8 -2.2 -2.2 -1.8 -1.8 -2.6 -2.6 -2.7 -0.7 4.1 4.3 4.4 4.5 5.0 5.3 5.5 5.6 5.9 5.9 6.0 6.5 5.6 5.2 6.0 7.6 7.1 5.3
-1.5 -2.4 -2.6 -2.3 -1.8 -2.1 -1.8 -2.3 -2.5 -0.3 1.9 2.8 3.3 3.9 4.3 4.5 5.0 5.1 5.1 5.1 4.7 5.3 6.8 5.9 6.6 7.9 8.0
-0.8 -1.6 -1.5 -2.2 -1.4 -0.2 -0.2 -0.6 -1.0 -1.7 -0.6 0.8 2.1 3.8 4.0 4.3 4.7 4.9 5.1 5.3 5.2 5.1 5.1 4.9 4.8 4.9 5.3
1.4 0.8 0.2 -0.0 0.4 -0.4 0.4 0.4 -0.4 -0.9 -0.4 -0.6 0.4 1.5 2.9 4.4 5.0 6.1 4.7 5.3 5.3 5.2 5.2 5.3 4.9 4.4 4.7
2.9 2.9 2.2 2.0 1.4 1.2 0.5 1.0 2.3 -0.8 0.6 1.0 0.3 0.6 1.6 2.6 4.3 4.5 4.5 5.5 4.8 5.0 5.4 5.4 5.1 5.1 5.2
3.6 3.4 3.3 2.8 2.7 2.6 2.4 2.7 2.4 0.0 1.2 2.3 1.6 2.6 1.8 2.3 3.4 4.7 7.3 7.0 6.0 5.3 4.8 4.8 5.0 5.4 5.6
4.7 4.1 3.7 3.3 3.3 3.2 3.3 2.8 2.6 2.1 2.0 3.6 2.4 2.5 2.5 2.6 3.2 4.2 6.4 7.4 7.4 6.8 6.7 6.5 6.2 6.0 6.2
5.8 5.5 5.0 4.6 4.1 4.2 4.1 4.2 4.2 3.9 2.7 3.7 3.1 3.0 3.3 3.5 3.6 4.9 7.0 7.5 7.8 7.6 6.8 6.3 7.1 7.0 6.6
6.2 5.6 5.1 5.9 5.6 5.6 5.4 5.3 5.0 5.1 4.1 4.6 4.6 4.6 5.1 5.3 5.7 5.6 7.2 7.7 8.0 7.9 8.0 8.0 8.0 8.1 8.0
6.9 7.1 7.1 6.6 6.1 5.5 5.7 6.5 6.8 7.1 6.1 6.0 5.9 5.5 5.9 6.5 5.8 6.3 7.6 7.6 7.6 7.6 7.8 7.9 7.8 7.6 7.2
6.9 6.8 6.9 7.0 7.2 6.8 6.3 6.4 6.7 6.4 7.3 6.6 7.0 7.0 7.2 7.8 7.7 5.8 6.1 6.7 6.7 7.3 6.7 6.1 5.7 5.7 5.8
6.8 6.6 6.7 6.7 6.9 7.0 6.9 6.5 6.5 6.4 6.3 6.7 7.3 7.9 7.8 7.9 8.2 8.0 6.7 5.7 5.0 5.9 5.3 4.9 4.5 4.1 4.7
6.9 7.2 7.6 7.7 7.8 7.2 7.5 7.6 7.3 8.0 7.1 6.9 6.8 7.1 7.7 7.8 7.9 7.7 7.8 7.3 6.3 5.8 5.3 5.3 5.4 5.4 6.0
7.5 7.7 7.7 7.9 8.2 7.9 8.1 8.2 8.0 7.9 8.5 8.2 6.9 6.9 7.1 7.4 7.7 8.1 7.8 7.7 7.9 7.4 7.1 7.0 7.3 7.6 7.7
7.9 8.0 8.0 8.1 8.3 8.4 8.6 8.9 8.9 8.6 8.5 8.6 7.9 7.7 8.1 7.8 6.7 7.6 7.9 8.2 8.1 8.0 8.1 7.8 8.2 8.7 8.8
7.7 7.8 8.0 7.9 8.0 8.0 8.3 8.5 8.8 9.2 9.2 9.2 8.8 8.2 8.1 7.9 9.2 8.7 8.3 8.2 7.9 8.2 8.6 8.8 8.6 9.0 8.8
Wind_Speed
1 4 5 6 11 16 19 14 5 18 18 28 28 26 26 26 23 22 20 19 18 14 14 14 14 12 12
1 2 4 4 5 10 13 16 15 8 22 25 27 29 27 25 23 21 19 14 12 14 15 15 15 14 14
2 1 3 2 4 6 6 10 16 21 17 15 17 21 25 24 21 18 16 12 12 11 11 12 13 13 15
5 4 3 3 3 2 3 4 5 12 17 20 16 10 13 15 16 17 13 10 11 11 9 8 8 8 8
4 3 2 2 3 1 3 1 3 6 3 9 12 11 9 7 9 9 10 10 11 11 11 10 10 9 9
4 3 4 3 2 2 2 1 2 5 2 2 4 3 3 2 5 7 9 11 13 12 13 13 12 11 11
7 5 3 3 2 3 2 2 2 1 2 2 1 1 2 1 5 6 10 12 14 14 14 14 12 12 13
8 6 6 6 6 3 3 5 4 4 2 1 2 2 3 6 9 11 11 14 15 14 13 13 14 13 14
14 12 10 9 8 5 4 3 2 1 0 1 2 1 3 7 11 15 15 14 15 14 13 14 14 14 14
7 10 11 9 6 5 3 3 2 1 3 2 2 1 2 6 9 14 18 20 17 16 17 17 16 14 13
6 5 6 7 6 4 2 1 0 1 3 3 3 3 3 1 1 5 9 13 15 16 19 19 20 18 10
6 6 5 5 5 6 4 0 1 3 4 8 2 5 5 4 5 2 5 7 8 8 6 9 11 12 12
5 5 4 5 5 5 5 4 2 2 2 5 8 6 6 6 6 5 5 5 10 10 10 9 9 8 6
3 3 4 4 4 6 4 4 3 2 2 5 5 6 6 6 7 5 5 4 6 9 7 7 7 11 14
4 3 3 3 3 4 4 3 3 4 4 4 7 7 7 7 6 6 5 5 5 5 6 6 10 12 13
3 3 3 3 3 3 3 3 4 3 3 3 4 5 5 4 5 6 5 6 4 6 6 6 8 12 14
3 3 3 3 4 3 4 4 4 5 5 5 5 5 7 8 5 5 6 6 3 4 5 6 7 6 9
Wind_Direction
93 31 38 26 24 29 41 38 159 192 183 161 158 161 163 158 152 147 155 161 163 181 190 193 190 182 183
163 89 73 41 42 52 32 35 30 133 162 158 155 152 139 137 137 141 146 157 176 198 191 197 198 191 185
119 125 88 57 51 56 34 39 43 55 68 104 128 135 136 134 136 138 138 156 180 209 220 202 207 211 211
72 72 71 49 70 81 78 38 42 51 57 68 70 91 118 132 135 141 148 170 201 207 212 214 215 224 235
77 84 58 51 76 56 73 70 59 43 49 43 58 60 73 117 128 140 149 183 206 211 214 225 227 225 233
65 72 85 80 70 71 87 75 113 20 54 70 56 45 43 65 187 188 187 202 206 217 223 227 228 234 240
80 55 70 56 81 91 83 79 77 70 62 127 92 119 154 228 267 254 216 218 225 228 227 222 229 242 240
80 79 79 77 65 68 78 83 84 96 112 150 137 244 250 244 236 236 235 225 233 231 230 241 241 234 238
80 77 86 94 99 105 96 110 82 83 148 29 144 221 228 242 240 246 242 237 229 221 230 244 245 247 248
63 57 53 73 88 70 118 132 113 143 147 198 125 156 271 245 229 227 231 236 237 234 237 240 238 240 246
83 67 63 63 67 50 66 19 298 304 138 193 203 193 250 336 243 232 232 235 240 238 237 241 240 243 251
74 65 55 38 38 47 57 348 335 333 331 206 261 226 236 252 252 221 231 224 221 225 243 247 259 261 259
68 63 41 28 28 39 37 30 359 293 330 276 242 260 253 259 267 234 216 224 222 227 214 211 218 226 251
65 42 27 23 45 34 15 1 324 309 315 280 290 298 279 259 264 269 238 232 211 226 229 229 233 246 251
55 43 38 19 18 21 15 349 350 9 353 18 353 333 316 294 276 267 259 242 234 231 235 244 247 250 254
44 22 21 11 8 7 346 326 311 322 331 335 330 323 305 276 246 284 289 272 268 258 249 259 266 265 261
39 29 19 357 344 339 339 330 318 311 305 311 307 303 294 282 281 261 288 295 309 290 283 278 278 278 280